{"data":{"norad_id":41942,"intl_designator":"2017-006A","name":"HISPASAT 36W-1","alt_names":[],"object_type":"PAYLOAD","status":"ACTIVE","operator":null,"country":"SPN","launch_date":"2017-01-28","launch_site_code":"FRGUI","launch_vehicle":null,"mission":null,"orbit_class":"UNKNOWN","rcs_meters":3.1648,"size_class":null,"mass_kg":null,"dimensions":null,"purposes":["comms"],"wikipedia_slug":null,"has_3d_model":false,"image_url":null,"decayed_at":null,"tle_current":{"epoch":"2026-05-25T03:34:17.062176Z","epoch_age_seconds":72710,"freshness":"FRESH","line1":"1 41942U 17006A   26145.14880859 -.00000247  00000+0  00000+0 0  9997","line2":"2 41942   0.0045 262.1405 0000970 158.4384 199.7391  1.00273011 34012","mean_motion":1.00273011,"eccentricity":9.7e-5,"inclination_deg":0.0045,"raan_deg":262.1405,"arg_perigee_deg":158.4384,"mean_anomaly_deg":199.7391,"bstar":0,"rev_number":3401,"period_min":1436.0793454183,"perigee_km":35782.161326725,"apogee_km":35790.34121805,"semimajor_km":42164.388272387,"source":"CELESTRAK","updated_at":"2026-05-25T13:38:14.012675Z"}}}